WX1USN Weather Reports


Display with metric or nautical units.
time (UTC)temp
F
wind
direction
speed
MPH
gust
MPH
rain 1hr
in
rain 24hr
in
rain mn
in
humidity
%
barometer
mb
20260507154508 59 275 3.0 10.0 0.00 0.33 0.29 55 1007.2
20260507153007 58 258 3.0 12.0 0.00 0.33 0.29 56 1007.5
20260507150018 59 234 2.0 11.0 0.00 0.33 0.29 64 1007.5
20260507143007 57 277 2.0 5.0 0.00 0.33 0.29 68 1007.9
20260507141508 56 13 2.0 7.0 0.00 0.33 0.29 71 1007.9
20260507140009 56 69 1.0 9.0 0.00 0.33 0.29 70 1007.9
20260507134507 54 23 2.0 8.0 0.00 0.33 0.29 77 1008.0
20260507133007 54 32 1.0 5.0 0.00 0.33 0.29 81 1008.1
20260507131506 53 279 1.0 4.0 0.00 0.33 0.29 89 1008.0
20260507130009 51 360 2.0 9.0 0.00 0.33 0.29 92 1008.2
20260507124509 50 269 1.0 4.0 0.00 0.33 0.29 95 1008.1
20260507123008 49 333 1.0 4.0 0.00 0.33 0.29 96 1008.2
20260507121506 49 245 1.0 4.0 0.00 0.33 0.29 96 1008.6
20260507120009 48 257 1.0 4.0 0.00 0.33 0.29 96 1007.9
20260507114506 48 265 0.0 4.0 0.00 0.33 0.29 96 1007.9
20260507113006 48 267 0.0 0.0 0.02 0.33 0.29 96 1008.1
20260507111509 47 289 0.0 0.0 0.07 0.33 0.29 95 1007.8
20260507110008 47 223 0.0 0.0 0.09 0.33 0.29 95 1007.7
20260507104506 47 339 0.0 0.0 0.10 0.33 0.29 95 1007.7
20260507100007 47 277 0.0 2.0 0.04 0.24 0.20 94 1007.8
20260507094505 48 313 0.0 2.0 0.05 0.23 0.19 93 1007.4
20260507093006 48 138 0.0 3.0 0.05 0.21 0.17 92 1007.5
20260507090008 49 344 0.0 0.0 0.08 0.20 0.16 93 1007.0
20260507084505 49 257 0.0 1.0 0.08 0.18 0.14 92 1007.3
20260507081505 51 317 1.0 8.0 0.10 0.15 0.11 91 1006.9
20260507080008 52 255 0.0 3.0 0.07 0.12 0.08 90 1007.4
20260507073007 54 246 1.0 8.0 0.00 0.05 0.01 84 1006.9
20260507071507 55 270 1.0 8.0 0.00 0.05 0.01 85 1006.0
20260507070011 55 335 1.0 5.0 0.00 0.05 0.01 87 1005.8
20260507064506 56 298 0.0 2.0 0.00 0.05 0.01 89 1006.0
20260507063006 56 323 1.0 3.0 0.00 0.05 0.01 89 1006.2
20260507061507 57 299 1.0 6.0 0.01 0.05 0.01 90 1006.0
20260507060008 57 294 1.0 5.0 0.01 0.05 0.01 90 1006.2
20260507054506 57 313 1.0 5.0 0.01 0.05 0.01 91 1006.4
20260507053006 58 302 1.0 7.0 0.01 0.05 0.01 92 1006.4
20260507051509 58 267 1.0 7.0 0.00 0.04 0.00 92 1006.4
20260507050010 58 254 2.0 9.0 0.00 0.04 0.00 93 1006.5
20260507044509 58 340 0.0 2.0 0.00 0.04 0.00 94 1006.4
20260507043008 58 273 0.0 2.0 0.00 0.04 0.00 94 1006.4
20260507041508 58 209 0.0 2.0 0.00 0.04 0.00 94 1006.4
20260507040024 58 263 0.0 2.0 0.00 0.04 0.00 94 1006.5
20260507034508 58 251 0.0 3.0 0.00 0.04 0.04 94 1006.5
20260507033008 58 224 1.0 5.0 0.00 0.04 0.04 94 1006.5
20260507031508 58 202 1.0 9.0 0.00 0.04 0.04 94 1006.3
20260507030012 57 213 1.0 9.0 0.00 0.04 0.04 94 1006.2
20260507024508 57 261 2.0 7.0 0.00 0.04 0.04 94 1006.0
20260507021508 57 227 1.0 6.0 0.00 0.04 0.04 94 1006.1
20260507014507 57 225 2.0 10.0 0.00 0.04 0.04 94 1006.3
20260507013007 57 196 2.0 9.0 0.00 0.04 0.04 95 1006.5
20260507011507 57 190 2.0 5.0 0.00 0.04 0.04 95 1006.7
20260507010011 56 219 1.0 8.0 0.00 0.04 0.04 95 1006.8
20260507004508 56 272 2.0 8.0 0.00 0.04 0.04 94 1006.7
20260507003007 56 184 3.0 9.0 0.00 0.04 0.04 94 1006.5
20260507001506 56 217 3.0 9.0 0.00 0.04 0.04 94 1006.5
20260507000010 56 202 3.0 10.0 0.00 0.04 0.04 94 1006.5
20260506234513 56 229 3.0 10.0 0.00 0.04 0.04 94 1006.4
20260506233007 56 208 4.0 9.0 0.00 0.04 0.04 93 1006.4
20260506231507 56 204 3.0 11.0 0.01 0.04 0.04 93 1006.5
20260506224507 57 195 2.0 8.0 0.02 0.04 0.04 93 1006.5
20260506223007 57 225 2.0 7.0 0.02 0.04 0.04 93 1006.4
20260506221508 58 184 3.0 13.0 0.01 0.03 0.03 92 1006.8
20260506220011 58 231 3.0 7.0 0.01 0.03 0.03 91 1006.9
20260506214507 59 236 3.0 9.0 0.01 0.02 0.02 91 1006.9
20260506213008 59 257 3.0 11.0 0.01 0.02 0.02 90 1007.1
20260506211508 59 226 3.0 11.0 0.01 0.02 0.02 91 1007.3
20260506210010 59 209 3.0 9.0 0.02 0.02 0.02 90 1007.2
20260506204507 60 219 4.0 11.0 0.01 0.01 0.01 89 1007.4
20260506203007 60 198 2.0 8.0 0.01 0.01 0.01 87 1007.5
20260506201508 61 249 2.0 10.0 0.01 0.01 0.01 86 1007.6
20260506194508 62 211 3.0 7.0 0.00 0.00 0.00 80 1007.5
20260506193007 63 241 3.0 11.0 0.00 0.00 0.00 76 1007.7
20260506191507 65 202 4.0 12.0 0.00 0.00 0.00 73 1007.7
20260506190009 66 163 3.0 13.0 0.00 0.00 0.00 69 1007.6
20260506184507 66 121 5.0 17.0 0.00 0.00 0.00 69 1007.6
20260506183007 67 219 4.0 13.0 0.00 0.00 0.00 67 1007.8
20260506180009 68 192 5.0 14.0 0.00 0.00 0.00 65 1008.0
20260506174507 69 184 5.0 16.0 0.00 0.00 0.00 64 1008.2
20260506173007 69 199 4.0 16.0 0.00 0.00 0.00 64 1008.4
20260506171507 69 169 4.0 10.0 0.00 0.00 0.00 64 1008.2
20260506164508 68 198 4.0 15.0 0.00 0.00 0.00 66 1008.8
20260506163007 68 190 3.0 7.0 0.00 0.00 0.00 66 1008.9
20260506161507 68 219 4.0 16.0 0.00 0.00 0.00 65 1009.2
20260506160011 69 201 4.0 14.0 0.00 0.00 0.00 65 1009.4